This demonstration page uses our WeatherBlox Daily Observations layout. Learn more.

Left ArrowRight Arrow

Hourly Observations for September 17, 2020

Temp ( °F °C ) Dew Point ( °F °C ) Humidity (%) Winds ( mph kmh ) Pressure ( in mb ) Visibility ( mi km ) Precip ( " mm )
12:54 am 00:54 Clear 54 12.2 47 8.3 77 77 N 8 13 30.2 1023 9 14.48406 0 0
1:54 am 01:54 Clear 56 13.3 47 8.3 72 72 NNW 7 11 30.2 1023 10 16.0934 0 0
2:54 am 02:54 Clear 53 11.7 46 7.8 77 77 N 5 7 30.2 1023 10 16.0934 0 0
3:54 am 03:54 Clear 53 11.7 46 7.8 77 77 Calm 30.2 1023 9 14.48406 0 0
4:54 am 04:54 Clear 49 9.4 45 7.2 86 86 N 7 11 30.21 1023 9 14.48406 0 0
5:54 am 05:54 Clear 47 8.3 44 6.7 90 90 N 6 9 30.22 1023 10 16.0934 0 0
6:54 am 06:54 Clear 50 10 45 7.2 83 83 N 6 9 30.23 1024 10 16.0934 0 0
7:54 am 07:54 Sunny 47 8.3 44 6.7 90 90 NNW 5 7 30.26 1025 7 11.26538 0 0
8:54 am 08:54 Sunny 52 11.1 48 8.9 86 86 N 5 7 30.26 1025 8 12.87472 0 0
9:54 am 09:54 Sunny 58 14.4 49 9.4 72 72 ENE 5 7 30.26 1025 9 14.48406 0 0
10:54 am 10:54 Sunny 62 16.7 49 9.4 62 62 ENE 3 6 30.25 1025 9 14.48406 0 0
11:54 am 11:54 Sunny 65 18.3 50 10 59 59 VRB 5 7 30.25 1024 9 14.48406 0 0
12:54 pm 12:54 Sunny 68 20 49 9.4 51 51 VRB 5 7 30.24 1024 9 14.48406 0 0
1:54 pm 13:54 Sunny 71 21.7 49 9.4 46 46 VRB 3 6 30.21 1023 9 14.48406 0 0
2:54 pm 14:54 Sunny 71 21.7 49 9.4 46 46 ESE 3 6 30.19 1022 9 14.48406 0 0
3:54 pm 15:54 Sunny 72 22.2 49 9.4 44 44 SE 5 7 30.17 1022 9 14.48406 0 0
4:54 pm 16:54 Sunny 72 22.2 48 8.9 43 43 E 5 7 30.15 1021 9 14.48406 0 0
5:54 pm 17:54 Sunny 71 21.7 48 8.9 44 44 ESE 5 7 30.15 1021 9 14.48406 0 0
6:54 pm 18:54 Sunny 68 20 50 10 53 53 ESE 5 7 30.15 1021 9 14.48406 0 0
7:54 pm 19:54 Clear 63 17.2 49 9.4 60 60 ENE 6 9 30.17 1022 10 16.0934 0 0
8:54 pm 20:54 Clear 60 15.6 49 9.4 67 67 E 6 9 30.19 1022 10 16.0934 0 0
9:54 pm 21:54 Clear 57 13.9 48 8.9 72 72 Calm 30.21 1023 10 16.0934 0 0
10:54 pm 22:54 Clear 55 12.8 48 8.9 77 77 N 3 6 30.22 1023 10 16.0934 0 0
11:54 pm 23:54 Clear 52 11.1 47 8.3 83 83 N 3 6 30.24 1024 10 16.0934 0 0

Powered by AerisWeather